Datum;Zeit;Leistung;Tagesertrag;Temperatur WR
11.01.2014;14:40:00;541;7.90;32
11.01.2014;14:50:00;304;7.90;32
11.01.2014;15:00:00;236;8.00;32
11.01.2014;15:10:00;222;8.00;32
11.01.2014;15:20:00;238;8.00;32
11.01.2014;15:30:00;214;8.10;32
11.01.2014;15:40:00;222;8.10;32
11.01.2014;15:50:00;233;8.20;32
11.01.2014;16:00:00;206;8.20;32
11.01.2014;16:10:00;213;8.20;32
11.01.2014;16:20:00;230;8.3;32
11.01.2014;16:30:00;198;8.3;32
11.01.2014;16:40:00;124;8.3;31
11.01.2014;16:50:00;104;8.3;31
11.01.2014;17:00:00;84;8.4;31
12.01.2014;08:30:00;36;0;23
12.01.2014;08:40:00;130;0;25
12.01.2014;08:50:00;153;0;26
12.01.2014;09:00:00;177;0;27
12.01.2014;09:10:00;232;.1;27
12.01.2014;09:20:00;274;.1;28
12.01.2014;09:30:00;305;.2;28
12.01.2014;09:40:00;324;.2;28
12.01.2014;09:50:00;468;.3;28
12.01.2014;10:00:00;393;.3;29
12.01.2014;10:10:00;442;.4;29
12.01.2014;10:20:00;554;.5;29
12.01.2014;10:30:00;705;.6;29
12.01.2014;10:40:00;778;.7;29
12.01.2014;10:50:00;960;.9;30
12.01.2014;11:00:00;1193;1.1;30
12.01.2014;11:10:00;1160;1.3;30
12.01.2014;11:20:00;1214;1.5;30
12.01.2014;11:30:00;960;1.6;30
12.01.2014;11:40:00;942;1.8;30
12.01.2014;11:50:00;928;2.0;31
12.01.2014;12:00:00;848;2.1;31
12.01.2014;12:10:00;955;2.3;31
12.01.2014;12:20:00;977;2.4;31
12.01.2014;12:30:00;935;2.6;31
12.01.2014;12:40:00;914;2.7;31
12.01.2014;12:50:00;963;2.9;31
12.01.2014;13:00:00;1022;3.0;31
12.01.2014;13:10:00;964;3.2;31
12.01.2014;13:20:00;889;3.4;31
12.01.2014;13:30:00;844;3.5;31
12.01.2014;13:40:00;944;3.6;31
12.01.2014;13:50:00;827;3.8;31
12.01.2014;14:00:00;657;3.9;31
12.01.2014;14:10:00;621;4.0;31
12.01.2014;14:20:00;559;4.1;31
12.01.2014;14:30:00;545;4.2;31
12.01.2014;14:40:00;404;4.3;31
12.01.2014;14:50:00;435;4.3;31
12.01.2014;15:00:00;503;4.4;31
12.01.2014;15:10:00;492;4.5;31
12.01.2014;15:20:00;436;4.6;31
12.01.2014;15:30:00;418;4.6;31
12.01.2014;15:40:00;313;4.7;31
12.01.2014;15:50:00;292;4.7;31
12.01.2014;16:00:00;278;4.8;31
12.01.2014;16:10:00;283;4.8;31
12.01.2014;16:20:00;245;4.9;31
12.01.2014;16:30:00;198;4.9;31
12.01.2014;16:40:00;100;4.9;31
12.01.2014;16:50:00;94;4.9;31
12.01.2014;17:00:00;85;5.0;31
13.01.2014;08:15:00;12;0;21
13.01.2014;08:25:00;179;0;25
13.01.2014;08:35:00;254;0;26
13.01.2014;08:45:00;298;.1;27
13.01.2014;08:55:00;366;.1;27
13.01.2014;09:05:00;464;.2;28
13.01.2014;09:15:00;599;.3;28
13.01.2014;09:25:00;631;.4;28
13.01.2014;09:35:00;903;.5;29
13.01.2014;09:45:00;1074;.7;29
13.01.2014;09:55:00;1160;.9;29
13.01.2014;10:05:00;1360;1.1;29
13.01.2014;10:15:00;1552;1.3;30
13.01.2014;10:25:00;2082;1.7;30
13.01.2014;10:35:00;2666;2.1;31
13.01.2014;10:45:00;2418;2.5;32
13.01.2014;10:55:00;1984;2.8;32
13.01.2014;11:05:00;1855;3.2;32
13.01.2014;11:15:00;1913;3.5;32
13.01.2014;11:25:00;1972;3.8;33
13.01.2014;11:35:00;2085;4.1;33
13.01.2014;11:45:00;1601;4.4;33
13.01.2014;11:55:00;1780;4.7;33
13.01.2014;12:05:00;1682;5.0;33
13.01.2014;12:15:00;1788;5.3;33
13.01.2014;12:25:00;2067;5.6;33
13.01.2014;12:35:00;1930;6.0;34
13.01.2014;12:45:00;1575;6.2;33
13.01.2014;12:55:00;1560;6.5;33
13.01.2014;13:05:00;1530;6.7;33
13.01.2014;13:15:00;1435;7.0;33
13.01.2014;13:25:00;1502;7.2;33
13.01.2014;13:35:00;1498;7.5;33
13.01.2014;13:45:00;1969;7.8;33
13.01.2014;13:55:00;1936;8.1;34
13.01.2014;14:05:00;1471;8.4;33
13.01.2014;14:15:00;1302;8.6;33
13.01.2014;14:25:00;1219;8.8;33
13.01.2014;14:35:00;1153;9.0;33
13.01.2014;14:45:00;839;9.2;33
13.01.2014;14:55:00;830;9.3;33
13.01.2014;15:05:00;739;9.4;33
13.01.2014;15:15:00;576;9.5;33
13.01.2014;15:25:00;534;9.6;32
13.01.2014;15:35:00;408;9.7;32
13.01.2014;15:45:00;406;9.7;32
13.01.2014;15:55:00;348;9.8;32
13.01.2014;16:05:00;249;9.9;32
13.01.2014;16:15:00;277;9.9;32
13.01.2014;16:25:00;139;9.9;32
13.01.2014;16:35:00;115;9.9;32
13.01.2014;16:45:00;93;10.0;32
13.01.2014;16:55:00;85;10.0;32
14.01.2014;08:35:00;0;0;25
14.01.2014;08:45:00;117;0;26
14.01.2014;08:55:00;115;0;26
14.01.2014;09:05:00;155;0;27
14.01.2014;09:15:00;170;0;27
14.01.2014;09:25:00;185;.1;28
14.01.2014;09:35:00;195;.1;28
14.01.2014;09:45:00;237;.1;28
14.01.2014;09:55:00;243;.2;28
14.01.2014;10:05:00;287;.2;29
14.01.2014;10:15:00;360;.3;29
14.01.2014;10:25:00;405;.3;29
14.01.2014;10:35:00;386;.4;29
14.01.2014;10:45:00;444;.5;29
14.01.2014;10:55:00;413;.5;30
14.01.2014;11:05:00;404;.6;30
14.01.2014;11:15:00;428;.7;30
14.01.2014;11:25:00;446;.8;30
14.01.2014;11:35:00;475;.8;30
14.01.2014;11:45:00;465;.9;30
14.01.2014;11:55:00;472;1.0;30
14.01.2014;12:05:00;490;1.1;30
14.01.2014;12:15:00;470;1.1;30
14.01.2014;12:25:00;465;1.2;30
14.01.2014;12:35:00;448;1.3;30
14.01.2014;12:45:00;479;1.4;30
14.01.2014;12:55:00;459;1.5;31
14.01.2014;13:05:00;465;1.5;31
14.01.2014;13:15:00;468;1.6;31
14.01.2014;13:25:00;494;1.7;31
14.01.2014;13:35:00;471;1.8;31
14.01.2014;13:45:00;498;1.8;31
14.01.2014;13:55:00;534;1.9;31
14.01.2014;14:05:00;559;2.0;31
14.01.2014;14:15:00;550;2.1;31
14.01.2014;14:25:00;501;2.2;31
14.01.2014;14:35:00;495;2.3;31
14.01.2014;14:45:00;492;2.4;31
14.01.2014;14:55:00;344;2.4;31
14.01.2014;15:05:00;335;2.5;31
14.01.2014;15:15:00;300;2.5;31
14.01.2014;15:25:00;240;2.6;31
14.01.2014;15:35:00;202;2.6;31
14.01.2014;15:45:00;177;2.6;31
14.01.2014;15:55:00;177;2.7;31
14.01.2014;16:05:00;161;2.7;31
14.01.2014;16:15:00;153;2.7;31
14.01.2014;16:25:00;107;2.7;31
14.01.2014;16:35:00;122;2.8;31
14.01.2014;16:45:00;106;2.8;31
14.01.2014;16:55:00;89;2.8;31
15.01.2014;08:15:00;10;0;20
15.01.2014;08:25:00;150;0;25
15.01.2014;08:35:00;193;0;26
15.01.2014;08:45:00;233;0;27
15.01.2014;08:55:00;266;.1;27
15.01.2014;09:05:00;298;.1;28
15.01.2014;09:15:00;433;.2;28
15.01.2014;09:25:00;874;.3;28
15.01.2014;09:35:00;994;.5;28
15.01.2014;09:45:00;1127;.7;29
15.01.2014;09:55:00;1215;.9;29
15.01.2014;10:05:00;1315;1.1;29
15.01.2014;10:15:00;1443;1.3;30
15.01.2014;10:25:00;1553;1.6;30
15.01.2014;10:35:00;1654;1.8;30
15.01.2014;10:45:00;2654;2.2;31
15.01.2014;10:55:00;3422;2.7;32
15.01.2014;11:05:00;3524;3.3;34
15.01.2014;11:15:00;3701;3.9;35
15.01.2014;11:25:00;3780;4.5;36
15.01.2014;11:35:00;3941;5.2;37
15.01.2014;11:45:00;4121;5.9;38
15.01.2014;11:55:00;4285;6.6;39
15.01.2014;12:05:00;4396;7.3;40
15.01.2014;12:15:00;4319;8.0;41
15.01.2014;12:25:00;4318;8.7;41
15.01.2014;12:35:00;4372;9.4;42
15.01.2014;12:45:00;3431;10.0;42
15.01.2014;12:55:00;4066;10.7;42
15.01.2014;13:05:00;4061;11.4;42
15.01.2014;13:15:00;2370;11.8;41
15.01.2014;13:25:00;2511;12.3;40
15.01.2014;13:35:00;2483;12.7;39
15.01.2014;13:45:00;2419;13.1;39
15.01.2014;13:55:00;2269;13.4;38
15.01.2014;14:05:00;1761;13.7;37
15.01.2014;14:15:00;1475;14.0;37
15.01.2014;14:25:00;1356;14.2;36
15.01.2014;14:35:00;1761;14.5;36
15.01.2014;14:45:00;1501;14.8;36
15.01.2014;14:55:00;1290;15.0;35
15.01.2014;15:05:00;790;15.1;35
15.01.2014;15:15:00;873;15.3;34
15.01.2014;15:25:00;604;15.4;34
15.01.2014;15:35:00;621;15.5;34
15.01.2014;15:45:00;670;15.6;34
15.01.2014;15:55:00;605;15.7;34
15.01.2014;16:05:00;484;15.8;33
15.01.2014;16:15:00;375;15.9;33
15.01.2014;16:25:00;308;15.9;33
15.01.2014;16:35:00;203;16.0;33
15.01.2014;16:45:00;140;16.0;33
15.01.2014;16:55:00;94;16.0;33
16.01.2014;08:20:00;0;0;24
16.01.2014;08:30:00;130;0;25
16.01.2014;08:40:00;137;0;26
16.01.2014;08:50:00;277;0;27
16.01.2014;09:00:00;459;.1;27
16.01.2014;09:10:00;458;.2;28
16.01.2014;09:20:00;489;.3;28
16.01.2014;09:30:00;650;.4;28
16.01.2014;09:40:00;1029;.5;28
16.01.2014;09:50:00;1581;.7;29
16.01.2014;10:00:00;1639;1.0;29
16.01.2014;10:10:00;1382;1.2;29
16.01.2014;10:20:00;1484;1.5;30
16.01.2014;10:30:00;1440;1.7;30
16.01.2014;10:40:00;1275;2.0;30
16.01.2014;10:50:00;1115;2.1;30
16.01.2014;11:00:00;1051;2.3;31
16.01.2014;11:10:00;1275;2.5;31
16.01.2014;11:20:00;1444;2.7;31
16.01.2014;11:30:00;1620;3.0;31
16.01.2014;11:40:00;1500;3.3;31
16.01.2014;11:50:00;1441;3.5;31
16.01.2014;12:00:00;1358;3.7;31
16.01.2014;12:10:00;1121;3.9;31
16.01.2014;12:20:00;1035;4.1;31
16.01.2014;12:30:00;1358;4.3;32
16.01.2014;12:40:00;1444;4.6;32
16.01.2014;12:50:00;1455;4.8;32
16.01.2014;13:00:00;1346;5.0;32
16.01.2014;13:10:00;1220;5.2;32
16.01.2014;13:20:00;953;5.4;32
16.01.2014;13:30:00;984;5.6;32
16.01.2014;13:40:00;1555;5.8;32
16.01.2014;13:50:00;1635;6.1;32
16.01.2014;14:00:00;1439;6.3;32
16.01.2014;14:10:00;1499;6.6;32
16.01.2014;14:20:00;1213;6.8;32
16.01.2014;14:30:00;1153;7.0;32
16.01.2014;14:40:00;1017;7.1;32
16.01.2014;14:50:00;548;7.3;32
16.01.2014;15:00:00;974;7.4;32
16.01.2014;15:10:00;1114;7.6;32
16.01.2014;15:20:00;889;7.7;32
16.01.2014;15:30:00;815;7.9;32
16.01.2014;15:40:00;735;8.0;32
16.01.2014;15:50:00;604;8.1;32
16.01.2014;16:00:00;387;8.2;32
16.01.2014;16:10:00;306;8.2;32
16.01.2014;16:20:00;282;8.3;32
16.01.2014;16:30:00;224;8.3;32
16.01.2014;16:40:00;161;8.3;32
16.01.2014;16:50:00;94;8.4;32
16.01.2014;16:55:00;83;8.4;32
17.01.2014;08:30:00;0;0;24
17.01.2014;08:40:00;155;0;25
17.01.2014;08:50:00;143;0;26
17.01.2014;09:00:00;238;0;27
17.01.2014;09:10:00;280;.1;27
17.01.2014;09:20:00;357;.1;28
17.01.2014;09:30:00;469;.2;28
17.01.2014;09:40:00;532;.3;28
17.01.2014;09:50:00;624;.4;28
17.01.2014;10:00:00;667;.5;29
17.01.2014;10:10:00;737;.6;29
17.01.2014;10:20:00;910;.8;29
17.01.2014;10:30:00;1100;.9;29
17.01.2014;10:40:00;1194;1.1;30
17.01.2014;10:50:00;1205;1.3;30
17.01.2014;11:00:00;1127;1.5;30
17.01.2014;11:10:00;1007;1.7;30
17.01.2014;11:20:00;1133;1.9;30
17.01.2014;11:30:00;1276;2.1;30
17.01.2014;11:40:00;1339;2.3;31
17.01.2014;11:50:00;1216;2.5;31
17.01.2014;12:00:00;1103;2.7;31
17.01.2014;12:10:00;946;2.8;31
17.01.2014;12:20:00;992;3.0;31
17.01.2014;12:30:00;1008;3.2;31
17.01.2014;12:40:00;829;3.3;31
17.01.2014;12:50:00;901;3.4;31
17.01.2014;13:00:00;1071;3.6;31
17.01.2014;13:10:00;1782;3.9;31
17.01.2014;13:20:00;1389;4.1;31
17.01.2014;13:30:00;1391;4.3;31
17.01.2014;13:40:00;2221;4.6;32
17.01.2014;13:50:00;1314;4.9;32
17.01.2014;14:00:00;1002;5.1;32
17.01.2014;14:10:00;1695;5.3;32
17.01.2014;14:20:00;1147;5.5;32
17.01.2014;14:30:00;1442;5.8;32
17.01.2014;14:40:00;1361;6.0;32
17.01.2014;14:50:00;1060;6.2;32
17.01.2014;15:00:00;983;6.4;32
17.01.2014;15:10:00;798;6.5;32
17.01.2014;15:20:00;911;6.7;32
17.01.2014;15:30:00;848;6.8;32
17.01.2014;15:40:00;657;7.0;32
17.01.2014;15:50:00;428;7.0;32
17.01.2014;16:00:00;467;7.1;32
17.01.2014;16:10:00;426;7.2;32
17.01.2014;16:20:00;387;7.2;32
17.01.2014;16:30:00;314;7.3;32
17.01.2014;16:40:00;234;7.3;32
17.01.2014;16:50:00;155;7.4;32
17.01.2014;17:00:00;111;7.4;32
17.01.2014;17:10:00;92;7.4;32
17.01.2014;17:20:00;84;7.4;31
18.01.2014;08:25:00;14;0;23
18.01.2014;08:35:00;163;0;25
18.01.2014;08:45:00;190;0;26
18.01.2014;08:55:00;317;.1;27
18.01.2014;09:05:00;352;.1;27
18.01.2014;09:15:00;305;.2;28
18.01.2014;09:25:00;378;.2;28
18.01.2014;09:35:00;560;.3;28
18.01.2014;09:45:00;798;.4;28
18.01.2014;09:55:00;741;0.6;29
18.01.2014;10:05:00;784;0.7;29
18.01.2014;10:15:00;837;0.8;29
18.01.2014;10:25:00;547;0.9;29
18.01.2014;10:35:00;444;1.0;29
18.01.2014;10:45:00;643;1.1;30
18.01.2014;10:55:00;584;1.2;30
18.01.2014;11:05:00;659;1.3;30
18.01.2014;11:15:00;673;1.4;30
18.01.2014;11:25:00;788;1.5;30
18.01.2014;11:35:00;808;1.7;30
18.01.2014;11:45:00;845;1.8;30
18.01.2014;11:55:00;934;1.9;30
18.01.2014;12:05:00;987;2.1;30
18.01.2014;12:15:00;1090;2.3;30
18.01.2014;12:25:00;887;2.4;31
18.01.2014;12:35:00;962;2.6;31
18.01.2014;12:45:00;522;2.7;31
18.01.2014;12:55:00;478;2.8;31
18.01.2014;13:05:00;329;2.9;31
18.01.2014;13:15:00;353;2.9;31
18.01.2014;13:25:00;371;3.0;31
18.01.2014;13:35:00;444;3.1;31
18.01.2014;13:45:00;327;3.1;31
18.01.2014;13:55:00;475;3.2;31
18.01.2014;14:05:00;486;3.3;31
18.01.2014;14:15:00;480;3.3;31
18.01.2014;14:25:00;488;3.4;31
18.01.2014;14:35:00;550;3.5;31
18.01.2014;14:45:00;525;3.6;31
18.01.2014;14:55:00;515;3.7;31
18.01.2014;15:05:00;534;3.8;31
18.01.2014;15:15:00;460;3.9;31
18.01.2014;15:25:00;482;3.9;31
18.01.2014;15:35:00;366;4.0;31
18.01.2014;15:45:00;302;4.1;31
18.01.2014;15:55:00;227;4.1;31
18.01.2014;16:05:00;203;4.1;31
18.01.2014;16:15:00;202;4.2;31
18.01.2014;16:25:00;157;4.2;31
18.01.2014;16:35:00;127;4.2;31
18.01.2014;16:45:00;107;4.2;31
18.01.2014;16:55:00;86;4.2;31
18.01.2014;17:00:00;83;4.3;31
19.01.2014;08:25:00;79;00;22
19.01.2014;08:35:00;115;00;25
19.01.2014;08:45:00;93;00;26
19.01.2014;08:55:00;164;00;26
19.01.2014;09:05:00;181;00;27
19.01.2014;09:15:00;205;0.1;27
19.01.2014;09:25:00;243;0.1;28
19.01.2014;09:35:00;270;0.2;28
19.01.2014;09:45:00;306;0.2;28
19.01.2014;09:55:00;311;0.3;28
19.01.2014;10:05:00;384;0.3;29
19.01.2014;10:15:00;376;0.4;29
19.01.2014;10:25:00;276;0.4;29
19.01.2014;10:35:00;297;0.5;29
19.01.2014;10:45:00;315;0.5;29
19.01.2014;10:55:00;350;0.6;29
19.01.2014;11:05:00;400;0.6;29
19.01.2014;11:15:00;423;0.7;29
19.01.2014;11:25:00;464;0.8;30
19.01.2014;11:35:00;441;0.9;30
19.01.2014;11:45:00;539;1.0;30
19.01.2014;11:55:00;447;1.0;30
19.01.2014;12:05:00;378;1.1;30
19.01.2014;12:15:00;429;1.2;30
19.01.2014;12:25:00;487;1.3;30
19.01.2014;12:35:00;475;1.3;30
19.01.2014;12:45:00;492;1.4;30
19.01.2014;12:55:00;500;1.5;30
19.01.2014;13:05:00;586;1.6;30
19.01.2014;13:15:00;541;1.7;30
19.01.2014;13:25:00;530;1.8;30
19.01.2014;13:35:00;564;1.9;30
19.01.2014;13:45:00;553;1.9;31
19.01.2014;13:55:00;601;2.0;31
19.01.2014;14:05:00;665;2.2;31
19.01.2014;14:15:00;620;2.3;31
19.01.2014;14:25:00;601;2.4;31
19.01.2014;14:35:00;559;2.5;31
19.01.2014;14:45:00;500;2.5;31
19.01.2014;14:55:00;445;2.6;31
19.01.2014;15:05:00;353;2.7;31
19.01.2014;15:15:00;366;2.7;31
19.01.2014;15:25:00;298;2.8;31
19.01.2014;15:35:00;261;2.8;31
19.01.2014;15:45:00;234;2.9;31
19.01.2014;15:55:00;213;2.9;31
19.01.2014;16:05:00;197;2.9;31
19.01.2014;16:15:00;172;3.0;31
19.01.2014;16:25:00;149;3.0;31
19.01.2014;16:35:00;124;3.0;31
19.01.2014;16:45:00;108;3.0;31
19.01.2014;16:55:00;91;3.0;31
20.01.2014;08:15:00;99;00;22
20.01.2014;08:25:00;276;00;25
20.01.2014;08:35:00;374;0.1;26
20.01.2014;08:45:00;413;0.1;26
20.01.2014;08:55:00;614;0.2;27
20.01.2014;09:05:00;715;0.3;27
20.01.2014;09:15:00;656;0.4;28
20.01.2014;09:25:00;502;0.5;28
20.01.2014;09:35:00;644;0.6;28
20.01.2014;09:45:00;922;0.8;29
20.01.2014;09:55:00;971;0.9;29
20.01.2014;10:05:00;929;1.1;29
20.01.2014;10:15:00;1631;1.3;29
20.01.2014;10:25:00;1751;1.6;29
20.01.2014;10:35:00;1518;1.9;30
20.01.2014;10:45:00;967;2.0;30
20.01.2014;10:55:00;1077;2.2;30
20.01.2014;11:05:00;1111;2.4;30
20.01.2014;11:15:00;1142;2.6;30
20.01.2014;11:25:00;1135;2.8;31
20.01.2014;11:35:00;963;2.9;31
20.01.2014;11:45:00;1103;3.1;31
20.01.2014;11:55:00;866;3.3;31
20.01.2014;12:05:00;1208;3.4;31
20.01.2014;12:15:00;1478;3.7;31
20.01.2014;12:25:00;1478;3.9;31
20.01.2014;12:35:00;940;4.1;31
20.01.2014;12:45:00;649;4.2;31
20.01.2014;12:55:00;520;4.3;31
20.01.2014;13:05:00;676;4.4;31
20.01.2014;13:15:00;590;4.5;31
20.01.2014;13:25:00;479;4.6;31
20.01.2014;13:35:00;621;4.7;31
20.01.2014;13:45:00;590;4.8;31
20.01.2014;13:55:00;544;4.9;31
20.01.2014;14:05:00;466;5.0;31
20.01.2014;14:15:00;376;5.0;31
20.01.2014;14:25:00;390;5.1;31
20.01.2014;14:35:00;376;5.2;31
20.01.2014;14:45:00;381;5.2;31
20.01.2014;14:55:00;417;5.3;31
20.01.2014;15:05:00;394;5.4;31
20.01.2014;15:15:00;298;5.4;31
20.01.2014;15:25:00;391;5.5;31
20.01.2014;15:35:00;372;5.5;31
20.01.2014;15:45:00;337;5.6;31
20.01.2014;15:55:00;360;5.7;31
20.01.2014;16:05:00;272;5.7;31
20.01.2014;16:15:00;181;5.7;31
20.01.2014;16:25:00;163;5.8;31
20.01.2014;16:35:00;103;5.8;31
20.01.2014;16:45:00;106;5.8;31
20.01.2014;16:50:00;92;5.8;31
21.01.2014;08:50:00;0;00;25
21.01.2014;09:00:00;123;00;25
21.01.2014;09:10:00;126;00;26
21.01.2014;09:20:00;192;00;26
21.01.2014;09:30:00;218;00;27
21.01.2014;09:40:00;238;0.1;27
21.01.2014;09:50:00;287;0.1;28
21.01.2014;10:00:00;329;0.2;28
21.01.2014;10:10:00;400;0.2;28
21.01.2014;10:20:00;479;0.3;28
21.01.2014;10:30:00;492;0.4;29
21.01.2014;10:40:00;512;0.5;29
21.01.2014;10:50:00;612;0.6;29
21.01.2014;11:00:00;617;0.7;29
21.01.2014;11:10:00;645;0.8;29
21.01.2014;11:20:00;597;0.9;29
21.01.2014;11:30:00;589;1.0;30
21.01.2014;11:40:00;556;1.1;30
21.01.2014;11:50:00;600;1.2;30
21.01.2014;12:00:00;598;1.3;30
21.01.2014;12:10:00;612;1.3;30
21.01.2014;12:20:00;553;1.4;30
21.01.2014;12:30:00;512;1.5;30
21.01.2014;12:40:00;552;1.6;30
21.01.2014;12:50:00;585;1.7;30
21.01.2014;13:00:00;708;1.8;30
21.01.2014;13:20:00;530;2.0;30
21.01.2014;13:30:00;719;2.1;30
21.01.2014;13:40:00;448;2.2;31
21.01.2014;13:50:00;531;2.3;31
21.01.2014;14:00:00;472;2.4;31
21.01.2014;14:10:00;544;2.4;31
21.01.2014;14:20:00;568;2.5;31
21.01.2014;14:30:00;551;2.6;31
21.01.2014;14:40:00;567;2.7;31
21.01.2014;14:50:00;561;2.8;31
21.01.2014;15:00:00;524;2.9;31
21.01.2014;15:10:00;462;3.0;31
21.01.2014;15:20:00;384;3.0;31
21.01.2014;15:30:00;338;3.1;31
21.01.2014;15:40:00;353;3.2;31
21.01.2014;15:50:00;391;3.2;31
21.01.2014;16:00:00;351;3.3;31
21.01.2014;16:10:00;302;3.3;31
21.01.2014;16:20:00;285;3.4;31
21.01.2014;16:30:00;229;3.4;31
21.01.2014;16:40:00;167;3.5;31
21.01.2014;16:50:00;110;3.5;31
21.01.2014;17:00:00;102;3.5;31
21.01.2014;17:10:00;89;3.5;31
22.01.2014;08:30:00;0;00;24
22.01.2014;08:40:00;114;00;25
22.01.2014;08:50:00;163;00;26
22.01.2014;09:00:00;186;00;27
22.01.2014;09:10:00;250;0.1;27
22.01.2014;09:20:00;281;0.1;27
22.01.2014;09:30:00;350;0.2;28
22.01.2014;09:40:00;420;0.2;28
22.01.2014;09:50:00;520;0.3;28
22.01.2014;10:00:00;678;0.4;29
22.01.2014;10:10:00;755;0.5;29
22.01.2014;10:20:00;864;0.7;29
22.01.2014;10:30:00;1007;0.8;29
22.01.2014;10:40:00;1073;1.0;29
22.01.2014;10:50:00;1194;1.2;30
22.01.2014;11:00:00;1141;1.4;30
22.01.2014;11:10:00;1302;1.6;30
22.01.2014;11:20:00;1291;1.8;30
22.01.2014;11:30:00;1328;2.0;30
22.01.2014;11:40:00;1177;2.2;30
22.01.2014;11:50:00;1098;2.4;31
22.01.2014;12:00:00;1039;2.6;31
22.01.2014;12:10:00;1143;2.8;31
22.01.2014;12:20:00;1108;2.9;31
22.01.2014;12:30:00;1137;3.1;31
22.01.2014;12:40:00;1091;3.3;31
22.01.2014;12:50:00;1029;3.5;31
22.01.2014;13:00:00;1083;3.7;31
22.01.2014;13:10:00;1181;3.9;31
22.01.2014;13:20:00;1162;4.0;31
22.01.2014;13:30:00;1085;4.2;31
22.01.2014;13:40:00;1224;4.4;31
22.01.2014;13:50:00;1038;4.6;31
22.01.2014;14:00:00;1031;4.8;31
22.01.2014;14:10:00;1053;4.9;31
22.01.2014;14:20:00;1011;5.1;32
22.01.2014;14:30:00;1005;5.3;32
22.01.2014;14:40:00;892;5.4;32
22.01.2014;14:50:00;917;5.6;32
22.01.2014;15:00:00;797;5.7;32
22.01.2014;15:10:00;712;5.8;32
22.01.2014;15:20:00;686;5.9;32
22.01.2014;15:30:00;570;6.0;32
22.01.2014;15:40:00;541;6.1;32
22.01.2014;15:50:00;472;6.2;32
22.01.2014;16:00:00;437;6.3;32
22.01.2014;16:10:00;358;6.4;32
22.01.2014;16:20:00;326;6.4;31
22.01.2014;16:30:00;244;6.5;31
22.01.2014;16:40:00;179;6.5;31
22.01.2014;16:50:00;142;6.5;31
22.01.2014;17:00:00;102;6.5;31
23.01.2014;08:25:00;70;00;25
23.01.2014;08:35:00;213;00;26
23.01.2014;08:45:00;429;00;26
23.01.2014;08:55:00;499;0.1;27
23.01.2014;09:05:00;393;0.2;27
23.01.2014;09:15:00;453;0.3;28
23.01.2014;09:25:00;368;0.3;28
23.01.2014;09:35:00;410;0.4;28
23.01.2014;09:45:00;355;0.5;28
23.01.2014;09:55:00;274;0.5;29
23.01.2014;10:05:00;465;0.6;29
23.01.2014;10:15:00;384;0.6;29
23.01.2014;10:25:00;420;0.7;29
23.01.2014;10:35:00;407;0.8;29
23.01.2014;10:45:00;442;0.9;29
23.01.2014;10:55:00;634;1.0;30
23.01.2014;11:05:00;616;1.1;30
23.01.2014;11:15:00;632;1.2;30
23.01.2014;11:25:00;459;1.3;30
23.01.2014;11:35:00;429;1.3;30
23.01.2014;11:45:00;489;1.4;30
23.01.2014;11:55:00;588;1.5;30
23.01.2014;12:05:00;703;1.6;30
23.01.2014;12:15:00;875;1.8;30
23.01.2014;12:25:00;865;1.9;30
23.01.2014;12:35:00;867;2.0;30
23.01.2014;12:45:00;715;2.2;30
23.01.2014;12:55:00;671;2.3;31
23.01.2014;13:05:00;429;2.4;31
23.01.2014;13:15:00;435;2.4;31
23.01.2014;13:25:00;533;2.5;31
23.01.2014;13:35:00;809;2.6;31
23.01.2014;13:45:00;689;2.8;31
23.01.2014;13:55:00;669;2.9;31
23.01.2014;14:05:00;600;3.0;31
23.01.2014;14:15:00;343;3.1;31
23.01.2014;14:25:00;282;3.1;31
23.01.2014;14:35:00;332;3.2;31
23.01.2014;14:45:00;378;3.2;31
23.01.2014;14:55:00;517;3.3;31
23.01.2014;15:05:00;604;3.4;31
23.01.2014;15:15:00;495;3.5;31
23.01.2014;15:25:00;444;3.6;31
23.01.2014;15:35:00;452;3.7;31
23.01.2014;15:45:00;769;3.8;31
23.01.2014;15:55:00;646;3.9;31
23.01.2014;16:05:00;412;4.0;31
23.01.2014;16:15:00;470;4.0;31
23.01.2014;16:25:00;285;4.1;31
23.01.2014;16:35:00;274;4.1;31
23.01.2014;16:45:00;180;4.2;31
23.01.2014;16:55:00;92;4.2;31
23.01.2014;17:05:00;88;4.2;31
23.01.2014;17:15:00;88;4.2;31
23.01.2014;17:20:00;87;4.2;31
24.01.2014;08:15:00;0;00;24
24.01.2014;08:25:00;125;00;25
24.01.2014;08:35:00;125;00;26
24.01.2014;08:45:00;168;00;26
24.01.2014;08:55:00;196;00;27
24.01.2014;09:05:00;204;0.1;27
24.01.2014;09:15:00;226;0.1;28
24.01.2014;09:25:00;261;0.2;28
24.01.2014;09:35:00;296;0.2;28
24.01.2014;09:45:00;325;0.3;28
24.01.2014;09:55:00;392;0.3;29
24.01.2014;10:05:00;180;0.4;29
24.01.2014;10:15:00;157;0.4;29
24.01.2014;10:25:00;217;0.4;29
24.01.2014;10:35:00;339;0.5;29
24.01.2014;10:45:00;379;0.5;29
24.01.2014;10:55:00;657;0.6;29
24.01.2014;11:05:00;550;0.7;30
24.01.2014;11:15:00;589;0.8;30
24.01.2014;11:25:00;1076;1.0;30
24.01.2014;11:35:00;568;1.1;30
24.01.2014;11:45:00;428;1.2;30
24.01.2014;11:55:00;587;1.3;30
24.01.2014;12:05:00;619;1.4;30
24.01.2014;12:15:00;827;1.5;30
24.01.2014;12:25:00;953;1.7;30
24.01.2014;12:35:00;867;1.8;30
24.01.2014;12:45:00;637;2.0;31
24.01.2014;12:55:00;567;2.1;31
24.01.2014;13:05:00;868;2.2;31
24.01.2014;13:15:00;987;2.4;31
24.01.2014;13:25:00;931;2.5;31
24.01.2014;13:35:00;996;2.7;31
24.01.2014;13:45:00;1159;2.9;31
24.01.2014;13:55:00;972;3.1;31
24.01.2014;14:05:00;998;3.2;31
24.01.2014;14:15:00;1136;3.4;31
24.01.2014;14:25:00;709;3.5;31
24.01.2014;14:35:00;796;3.6;31
24.01.2014;14:45:00;1098;3.8;31
24.01.2014;14:55:00;1604;4.1;31
24.01.2014;15:05:00;1323;4.3;31
24.01.2014;15:15:00;1333;4.5;31
24.01.2014;15:25:00;1506;4.7;31
24.01.2014;15:35:00;1145;5.0;31
24.01.2014;15:45:00;826;5.1;31
24.01.2014;15:55:00;795;5.2;31
24.01.2014;16:05:00;617;5.3;31
24.01.2014;16:15:00;332;5.4;31
24.01.2014;16:25:00;254;5.5;31
24.01.2014;16:35:00;195;5.5;31
24.01.2014;16:45:00;145;5.5;31
24.01.2014;16:55:00;104;5.5;31
24.01.2014;17:00:00;89;5.5;31
25.01.2014;08:35:00;0;00;20
25.01.2014;08:45:00;148;00;25
25.01.2014;08:55:00;116;00;26
25.01.2014;09:05:00;146;00;26
25.01.2014;09:15:00;153;00;27
25.01.2014;09:25:00;155;0.1;27
25.01.2014;09:35:00;159;0.1;28
25.01.2014;09:45:00;149;0.1;28
25.01.2014;09:55:00;184;0.1;28
25.01.2014;10:05:00;227;0.2;28
25.01.2014;10:15:00;248;0.2;28
25.01.2014;10:25:00;298;0.3;29
25.01.2014;10:35:00;287;0.3;29
25.01.2014;10:45:00;352;0.4;29
25.01.2014;10:55:00;510;0.4;29
25.01.2014;11:05:00;441;0.5;29
25.01.2014;11:15:00;627;0.6;29
25.01.2014;11:25:00;458;0.7;29
25.01.2014;11:35:00;528;0.8;29
25.01.2014;11:45:00;603;0.9;30
25.01.2014;11:55:00;813;1.0;30
25.01.2014;12:05:00;916;1.2;30
25.01.2014;12:15:00;1540;1.4;30
25.01.2014;12:25:00;2939;1.8;30
25.01.2014;12:35:00;2918;2.3;32
25.01.2014;12:45:00;2016;2.6;32
25.01.2014;12:55:00;2066;3.0;32
25.01.2014;13:05:00;2325;3.3;32
25.01.2014;13:15:00;3157;3.8;33
25.01.2014;13:25:00;3342;4.4;34
25.01.2014;13:35:00;2833;4.9;35
25.01.2014;13:45:00;2269;5.2;35
25.01.2014;13:55:00;1401;5.5;34
25.01.2014;14:05:00;1593;5.8;33
25.01.2014;14:15:00;1653;6.0;33
25.01.2014;14:25:00;1096;6.2;33
25.01.2014;14:35:00;1102;6.4;32
25.01.2014;14:45:00;1558;6.7;32
25.01.2014;14:55:00;1488;6.9;32
25.01.2014;15:05:00;1269;7.1;32
25.01.2014;15:15:00;1182;7.3;32
25.01.2014;15:25:00;830;7.5;32
25.01.2014;15:35:00;800;7.6;32
25.01.2014;15:45:00;821;7.7;32
25.01.2014;15:55:00;906;7.9;32
25.01.2014;16:05:00;837;8.0;32
25.01.2014;16:15:00;432;8.1;32